[[{"header":{"parameterUnit":"m.s-1","parameterCategory":2,"la1":30.2991,"la2":30.254,"lo1":-89.0895,"lo2":-89.0444,"dy":0.0017,"dx":0.0017,"nx":28,"ny":28,"refTime":"2023-03-13T21:00:00:Z","depth":"0","parameterNumber":2,"parameterNumberName":"U-component_of_CURRENTS"},"data":[0,0,0,0,0,0,0,0,0,0,0,0,0,0,0,0,0,0,0,0,0,0,0,0,0,0,0,0,0,0,0,0,0,0,0,0,0,0,0,0,0,0,0,0,0,0,0,0,0,0,0,0,0,0,0,0,0,0,-0.2207,-0.2207,0,-0.224,-0.224,-0.224,-0.2219,-0.2218,-0.2217,-0.2217,-0.219,-0.219,-0.219,0,0,0,0,0,0,0,0,0,0,0,0,0,-0.2136,-0.2137,-0.2206,-0.2207,-0.2208,-0.224,-0.224,-0.224,-0.2219,-0.2218,-0.2217,-0.2216,-0.219,-0.219,-0.219,0,0,0,0,0,0,0,0,0,0,0,0,0,-0.2165,-0.2138,-0.2206,-0.2203,-0.2203,-0.2239,-0.224,-0.224,-0.2219,-0.2218,-0.2217,-0.2216,-0.219,-0.219,-0.219,-0.2214,0,0,-0.219,-0.219,0,0,0,0,0,0,0,0,-0.2164,-0.2168,-0.2203,-0.2203,-0.2203,-0.2226,-0.2205,-0.2229,-0.2219,-0.2211,-0.2217,-0.2215,-0.2199,-0.2198,-0.2205,-0.2212,-0.2211,-0.219,-0.219,-0.219,-0.219,0,0,0,0,0,0,0,-0.2162,-0.2166,-0.2217,-0.2204,-0.2204,-0.2203,-0.2206,-0.221,-0.2208,-0.2211,-0.221,-0.2218,-0.2198,-0.2205,-0.2204,-0.2211,-0.219,-0.219,-0.219,-0.219,-0.224,-0.2241,0,0,0,0,0,0,-0.2163,-0.2165,-0.2216,-0.2218,-0.2183,-0.2206,-0.2208,-0.2218,-0.2209,-0.2208,-0.2219,-0.2217,-0.2205,-0.2204,-0.2203,-0.2234,-0.219,-0.219,-0.219,-0.2238,-0.224,-0.2241,0,0,0,0,0,0,-0.2162,-0.2168,-0.2215,-0.2194,-0.22,-0.2208,-0.2219,-0.2219,-0.2221,-0.2216,-0.2213,-0.222,-0.2204,-0.2203,-0.2213,-0.2232,-0.219,-0.219,-0.2237,-0.2239,-0.2241,-0.2294,0,0,0,0,0,0,-0.216,-0.2167,-0.217,-0.2194,-0.2201,-0.224,-0.2221,-0.2221,-0.2229,-0.2227,-0.2217,-0.2213,-0.2203,-0.2214,-0.2213,-0.2232,-0.219,-0.2235,-0.2238,-0.224,-0.229,-0.2297,-0.2303,0,0,0,0,0,-0.2157,-0.2166,-0.217,-0.2176,-0.2206,-0.2242,-0.2245,-0.2245,-0.223,-0.224,-0.2235,-0.2213,-0.2229,-0.2215,-0.2214,-0.2233,-0.2234,-0.2237,-0.224,-0.2287,-0.2296,-0.2303,0,0,0,0,0,0,-0.2131,-0.2166,-0.217,-0.2187,-0.2215,-0.2239,-0.2245,-0.2248,-0.2253,-0.2245,-0.2231,-0.2229,-0.2244,-0.2236,-0.2221,-0.2255,-0.2228,-0.223,-0.2264,-0.2272,-0.2278,-0.2273,-0.219,0,0,0,0,0,-0.213,-0.2145,-0.2182,-0.2194,-0.2209,-0.2228,-0.2239,-0.2246,-0.2257,-0.2257,-0.2253,-0.2251,-0.2259,-0.2261,-0.2264,-0.2286,-0.2274,-0.2297,-0.2304,-0.2309,-0.2306,-0.2312,-0.2318,-0.2251,-0.2251,-0.2251,0,0,-0.2121,-0.2143,-0.2149,-0.2189,-0.2206,-0.2245,-0.223,-0.2254,-0.2283,-0.2254,-0.2278,-0.2271,-0.227,-0.2293,-0.23,-0.2286,-0.2326,-0.2313,-0.2318,-0.2311,-0.2316,-0.2322,-0.2328,-0.2253,-0.2253,-0.2252,0,0,-0.2125,-0.2134,-0.2157,-0.2189,-0.2228,-0.2247,-0.2256,-0.2288,-0.2295,-0.2325,-0.2311,-0.2319,-0.233,-0.2337,-0.2341,-0.2386,-0.2358,-0.2385,-0.2415,-0.2421,-0.2427,-0.2431,-0.2438,-0.2442,-0.239,-0.239,-0.239,0,-0.2112,-0.2151,-0.2168,-0.221,-0.2237,-0.2252,-0.2293,-0.2313,-0.2342,-0.2353,-0.2337,-0.236,-0.2354,-0.2388,-0.24,-0.24,-0.2395,-0.2385,-0.2429,-0.2433,-0.2436,-0.2442,-0.2446,-0.2393,-0.2393,-0.2392,-0.2392,0,-0.2147,-0.2181,-0.2197,-0.2256,-0.2288,-0.2322,-0.2364,-0.2385,-0.2391,-0.2408,-0.2434,-0.2431,-0.2439,-0.2446,-0.2434,-0.2463,-0.2449,-0.2434,-0.2407,-0.2446,-0.245,-0.2453,-0.2397,-0.2396,-0.2395,-0.2395,0,0,-0.2108,-0.2204,-0.2209,-0.2243,-0.2315,-0.2341,-0.2396,-0.2446,-0.2469,-0.2488,-0.2518,-0.2531,-0.2512,-0.2515,-0.2504,-0.2511,-0.2534,-0.2481,-0.248,-0.2483,-0.2547,-0.2514,-0.2514,-0.2522,-0.2523,-0.2523,-0.2543,0,-0.2129,-0.2206,-0.2256,-0.2322,-0.2362,-0.2406,-0.2454,-0.2497,-0.2523,-0.2554,-0.2558,-0.2574,-0.2546,-0.2542,-0.2548,-0.2536,-0.2543,-0.253,-0.2511,-0.2511,-0.2473,-0.2517,-0.2417,-0.2424,-0.2546,-0.2547,-0.2547,0,-0.2145,-0.2196,-0.2268,-0.2352,-0.2373,-0.2414,-0.2477,-0.2524,-0.2579,-0.2596,-0.2617,-0.2617,-0.2634,-0.2598,-0.2601,-0.2591,-0.2569,-0.2559,-0.2559,-0.2508,-0.2484,-0.2402,-0.2425,-0.2399,-0.2552,-0.2552,-0.2551,0,-0.2095,-0.2198,-0.2248,-0.2281,-0.2382,-0.2412,-0.2456,-0.2523,-0.2562,-0.2613,-0.2637,-0.2659,-0.266,-0.265,-0.2624,-0.2611,-0.2623,-0.2605,-0.2561,-0.2559,-0.2459,-0.2446,-0.2446,-0.2604,-0.2604,-0.2604,-0.2604,0,-0.2092,-0.213,-0.2223,-0.2251,-0.2302,-0.2377,-0.2431,-0.2479,-0.2552,-0.2588,-0.2636,-0.2661,-0.2668,-0.2677,-0.2649,-0.2617,-0.2642,-0.2572,-0.2563,-0.2477,-0.2466,-0.2425,-0.2433,-0.2605,-0.2605,-0.2605,-0.2605,0,-0.2033,-0.2101,-0.2157,-0.2254,-0.2281,-0.2308,-0.2412,-0.2439,-0.252,-0.2571,-0.2586,-0.2662,-0.2678,-0.269,-0.268,-0.2642,-0.2576,-0.26,-0.25,-0.2479,-0.2409,-0.2423,-0.2403,-0.2335,-0.2562,-0.2561,-0.2561,0,-0.2015,-0.2036,-0.2131,-0.2149,-0.2191,-0.2251,-0.2284,-0.2395,-0.2435,-0.2559,-0.2569,-0.2633,-0.2656,-0.2663,-0.2617,-0.259,-0.2555,-0.247,-0.2427,-0.2399,-0.241,-0.2405,-0.2348,-0.2323,-0.232,-0.2318,-0.2317,0,-0.1959,-0.1986,-0.2022,-0.207,-0.2104,-0.2157,-0.2219,-0.2258,-0.2376,-0.2436,-0.2506,-0.2548,-0.259,-0.2538,-0.252,-0.2475,-0.2405,-0.2428,-0.2417,-0.2243,-0.2217,-0.2148,-0.2326,-0.2299,-0.2301,-0.2302,-0.2303,-0.2304,-0.1888,-0.1893,-0.193,-0.1966,-0.2002,-0.2029,-0.2037,-0.2121,-0.2182,-0.2256,-0.2372,-0.2422,-0.243,-0.2405,-0.2374,-0.227,-0.2296,-0.2183,-0.2211,-0.2216,-0.2124,-0.227,-0.2222,-0.2223,-0.2224,-0.2225,-0.2226,0,-0.1792,-0.1802,-0.1825,-0.1855,-0.1842,-0.1909,-0.1958,-0.1947,-0.1973,-0.2098,-0.2162,-0.2249,-0.2204,-0.2229,-0.216,-0.207,-0.2,-0.201,-0.197,-0.1925,-0.2061,-0.2022,-0.1904,-0.1904,-0.1904,-0.1904,-0.1904,-0.1904,-0.1736,-0.1715,-0.1734,-0.1682,-0.1693,-0.1644,-0.1643,-0.1654,-0.1718,-0.1796,-0.1913,-0.2056,-0.2091,-0.22,-0.2082,-0.1976,-0.1905,-0.1842,-0.1861,-0.1956,-0.1974,-0.1991,-0.1955,-0.1824,-0.1824,-0.1636,-0.1635,-0.1634]},{"header":{"parameterUnit":"m.s-1","parameterCategory":2,"la1":30.2991,"la2":30.254,"lo1":-89.0895,"lo2":-89.0444,"dy":0.0017,"dx":0.0017,"nx":28,"ny":28,"refTime":"2023-03-13T21:00:00:Z","depth":"0","parameterNumber":3,"parameterNumberName":"V-component_of_CURRENTS"},"data":[0,0,0,0,0,0,0,0,0,0,0,0,0,0,0,0,0,0,0,0,0,0,0,0,0,0,0,0,0,0,0,0,0,0,0,0,0,0,0,0,0,0,0,0,0,0,0,0,0,0,0,0,0,0,0,0,0,0,-0.0201,-0.02,0,-0.0118,-0.0117,-0.0116,-0.0064,-0.0064,-0.0064,-0.0063,0.0038,0.004,0.0043,0,0,0,0,0,0,0,0,0,0,0,0,0,-0.0277,-0.0276,-0.0201,-0.02,-0.0199,-0.0118,-0.0117,-0.0115,-0.0064,-0.0064,-0.0064,-0.0063,0.0037,0.004,0.0043,0,0,0,0,0,0,0,0,0,0,0,0,0,-0.0222,-0.0275,-0.0201,-0.0165,-0.0161,-0.0118,-0.0117,-0.0115,-0.0064,-0.0064,-0.0063,-0.0063,0.0036,0.004,0.0044,0.0063,0,0,0.0055,0.0057,0,0,0,0,0,0,0,0,-0.0225,-0.0219,-0.0171,-0.0167,-0.0163,-0.0102,-0.0106,-0.0055,-0.0064,-0.0099,-0.0063,-0.0063,-0.0008,-0.0001,0.0016,0.0068,0.0072,0.0056,0.0058,0.006,0.0061,0,0,0,0,0,0,0,-0.0229,-0.0222,-0.0167,-0.017,-0.0165,-0.0139,-0.0132,-0.0096,-0.0055,-0.0096,-0.0093,-0.0086,-0.0006,0.0012,0.0019,0.0074,0.0056,0.0059,0.0061,0.0063,0.0154,0.0154,0,0,0,0,0,0,-0.0245,-0.0226,-0.0169,-0.0164,-0.0196,-0.0139,-0.013,-0.0121,-0.0055,-0.0046,-0.0086,-0.0084,0.0006,0.0014,0.0023,0.0049,0.006,0.0063,0.0066,0.0154,0.0154,0.0154,0,0,0,0,0,0,-0.0247,-0.024,-0.0173,-0.0195,-0.0184,-0.0138,-0.0128,-0.0119,-0.0102,-0.0048,-0.0038,-0.0078,0.0006,0.0017,0.0055,0.0054,0.0065,0.0069,0.0154,0.0154,0.0154,0.0103,0,0,0,0,0,0,-0.0249,-0.0242,-0.0242,-0.0196,-0.0184,-0.0154,-0.0128,-0.0118,-0.0099,-0.0095,-0.0038,-0.0028,0.0007,0.0049,0.0059,0.0059,0.0072,0.0153,0.0154,0.0154,0.0105,0.0101,0.0099,0,0,0,0,0,-0.0252,-0.0256,-0.0243,-0.0236,-0.0186,-0.0155,-0.0146,-0.0111,-0.0099,-0.0094,-0.0053,-0.003,0.0057,0.0052,0.0064,0.0065,0.0153,0.0154,0.0154,0.0106,0.0102,0.0099,0,0,0,0,0,0,-0.0287,-0.0249,-0.0234,-0.0226,-0.0196,-0.0147,-0.0141,-0.0116,-0.008,-0.0077,-0.0025,-0.0013,0.0019,0.0049,0.0043,0.0092,0.0108,0.011,0.0067,0.0064,0.0061,0.0044,0.0075,0,0,0,0,0,-0.0297,-0.029,-0.0248,-0.0242,-0.0231,-0.0188,-0.0172,-0.0148,-0.0109,-0.0093,-0.0052,-0.0009,0.0029,0.0051,0.0088,0.0117,0.0146,0.0125,0.0122,0.0119,0.0113,0.0156,0.0156,0.0155,0.0155,0.0155,0,0,-0.0309,-0.0288,-0.0284,-0.025,-0.0225,-0.0218,-0.0177,-0.0158,-0.0145,-0.0088,-0.0061,-0.002,0.0034,0.0066,0.0082,0.0092,0.0135,0.0119,0.0117,0.0112,0.0156,0.0156,0.0156,0.0155,0.0155,0.0155,0,0,-0.0338,-0.0313,-0.0321,-0.03,-0.0269,-0.0241,-0.024,-0.0194,-0.0167,-0.0135,-0.0091,-0.005,0.0006,0.0048,0.0075,0.0079,0.0116,0.0088,0.0064,0.0105,0.0105,0.0106,0.0142,0.0146,0.0089,0.0089,0.0089,0,-0.0356,-0.0358,-0.0318,-0.0321,-0.0311,-0.0259,-0.0267,-0.023,-0.0176,-0.0154,-0.0136,-0.0047,-0.0001,0.0045,0.0048,0.0072,0.0098,0.0071,0.01,0.0101,0.0103,0.014,0.0145,0.0087,0.0087,0.0087,0.0088,0,-0.0391,-0.0392,-0.0396,-0.0383,-0.0366,-0.0363,-0.0313,-0.0291,-0.0255,-0.0212,-0.0159,-0.009,-0.0038,-0.0015,0.002,0.0054,0.007,0.0088,0.0105,0.01,0.0139,0.0146,0.0083,0.0084,0.0085,0.0085,0,0,-0.0429,-0.0424,-0.0424,-0.0437,-0.0399,-0.0393,-0.037,-0.0333,-0.0319,-0.0253,-0.0227,-0.0145,-0.0102,-0.0068,-0.0015,0.0027,0.0065,0.0057,0.006,0.0085,0.0151,0.02,0.0212,0.0086,0.0087,0.0087,0.0174,0,-0.047,-0.0503,-0.0478,-0.0506,-0.0521,-0.0469,-0.0456,-0.041,-0.0355,-0.0314,-0.0225,-0.018,-0.0122,-0.0099,-0.0046,0.0039,0.0079,0.004,0.0159,0.0162,0.0201,0.022,0.0256,0.034,0.018,0.0181,0.0182,0,-0.0512,-0.053,-0.0569,-0.0579,-0.058,-0.0581,-0.0553,-0.0528,-0.0445,-0.0404,-0.0332,-0.026,-0.0174,-0.0136,0.0009,-0.0021,0.0055,0.012,0.0126,0.0192,0.0224,0.0321,0.0358,0.0506,0.0192,0.0192,0.0191,0,-0.057,-0.0593,-0.0632,-0.0633,-0.0631,-0.0633,-0.062,-0.0555,-0.0536,-0.0453,-0.0433,-0.0316,-0.0259,-0.0146,0.0008,0.0004,0.0161,0.0173,0.0287,0.0291,0.0356,0.0365,0.0545,0.0257,0.0257,0.0256,0.0256,0,-0.0625,-0.0656,-0.0666,-0.0688,-0.0735,-0.0694,-0.0712,-0.0678,-0.0621,-0.0603,-0.0482,-0.0444,-0.026,-0.0139,-0.0011,0.017,0.0151,0.0288,0.0321,0.034,0.0346,0.0506,0.0565,0.026,0.0259,0.0258,0.0258,0,-0.0684,-0.0688,-0.0742,-0.0759,-0.0768,-0.0796,-0.0793,-0.0796,-0.0728,-0.07,-0.068,-0.0534,-0.0361,-0.0169,0.0028,0.0148,0.0407,0.0369,0.0381,0.0414,0.0656,0.0708,0.0909,0.0988,0.0508,0.0509,0.0511,0,-0.0718,-0.0752,-0.0807,-0.085,-0.0862,-0.0892,-0.0913,-0.0863,-0.0858,-0.0755,-0.0752,-0.0576,-0.0442,-0.0117,0.0135,0.0387,0.0492,0.0545,0.0547,0.0686,0.0769,0.0802,0.0855,0.0614,0.0617,0.0618,0.062,0,-0.0783,-0.0802,-0.0848,-0.0941,-0.0986,-0.1032,-0.1047,-0.1063,-0.0988,-0.0946,-0.0852,-0.073,-0.0378,-0.0052,0.0294,0.0436,0.0666,0.0589,0.0738,0.0876,0.092,0.1005,0.0534,0.0636,0.0634,0.0633,0.0632,0.0632,-0.0825,-0.0882,-0.0947,-0.1035,-0.1093,-0.1151,-0.1187,-0.1179,-0.1168,-0.1076,-0.0941,-0.0723,-0.0217,0.0294,0.0476,0.0869,0.0818,0.0965,0.1018,0.104,0.1122,0.0684,0.0821,0.082,0.082,0.0819,0.0819,0,-0.0877,-0.0942,-0.1035,-0.1133,-0.1212,-0.1217,-0.1264,-0.1276,-0.1266,-0.1121,-0.0988,-0.044,0.0057,0.0523,0.11,0.1291,0.1324,0.1372,0.1432,0.1466,0.1092,0.1104,0.1303,0.1303,0.1302,0.1302,0.1302,0.1302,-0.0906,-0.1007,-0.1065,-0.1212,-0.1276,-0.1358,-0.1385,-0.1378,-0.1294,-0.105,-0.0747,-0.0503,0.0218,0.1169,0.1682,0.1705,0.1856,0.1832,0.1912,0.1661,0.1627,0.1594,0.1621,0.1925,0.1926,0.2268,0.2271,0.2274]}],[{"header":{"parameterUnit":"m.s-1","parameterCategory":2,"la1":30.2991,"la2":30.254,"lo1":-89.0895,"lo2":-89.0444,"dy":0.0017,"dx":0.0017,"nx":28,"ny":28,"refTime":"2023-03-13T21:00:00:Z","depth":"2","parameterNumber":2,"parameterNumberName":"U-component_of_CURRENTS"},"data":[0,0,0,0,0,0,0,0,0,0,0,0,0,0,0,0,0,0,0,0,0,0,0,0,0,0,0,0,0,0,0,0,0,0,0,0,0,0,0,0,0,0,0,0,0,0,0,0,0,0,0,0,0,0,0,0,0,0,-0.2025,-0.2025,0,-0.2057,-0.2057,-0.2057,-0.2042,-0.2042,-0.2041,-0.2041,-0.2022,-0.2022,-0.2023,0,0,0,0,0,0,0,0,0,0,0,0,0,-0.1958,-0.1959,-0.2025,-0.2025,-0.2026,-0.2057,-0.2057,-0.2057,-0.2042,-0.2042,-0.2041,-0.204,-0.2022,-0.2022,-0.2023,0,0,0,0,0,0,0,0,0,0,0,0,0,-0.1986,-0.1959,-0.2025,-0.2024,-0.2024,-0.2057,-0.2057,-0.2057,-0.2043,-0.2042,-0.2041,-0.204,-0.2022,-0.2022,-0.2023,-0.2041,0,0,-0.2023,-0.2023,0,0,0,0,0,0,0,0,-0.1984,-0.1988,-0.2024,-0.2024,-0.2025,-0.2047,-0.2027,-0.205,-0.2043,-0.2033,-0.2041,-0.204,-0.2028,-0.2028,-0.2033,-0.204,-0.2039,-0.2023,-0.2023,-0.2023,-0.2023,0,0,0,0,0,0,0,-0.1982,-0.1986,-0.2035,-0.2024,-0.2025,-0.2025,-0.2027,-0.2031,-0.2033,-0.2034,-0.2034,-0.2041,-0.2027,-0.2033,-0.2032,-0.2039,-0.2023,-0.2023,-0.2023,-0.2023,-0.2073,-0.2074,0,0,0,0,0,0,-0.1984,-0.1985,-0.2034,-0.2036,-0.2004,-0.2027,-0.203,-0.2039,-0.2034,-0.2033,-0.2042,-0.204,-0.2033,-0.2032,-0.2032,-0.2066,-0.2023,-0.2023,-0.2023,-0.2072,-0.2074,-0.2075,0,0,0,0,0,0,-0.1982,-0.1988,-0.2033,-0.2013,-0.2019,-0.2029,-0.2039,-0.204,-0.2044,-0.2041,-0.2038,-0.2046,-0.2033,-0.2031,-0.2044,-0.2065,-0.2023,-0.2023,-0.207,-0.2072,-0.2074,-0.2127,0,0,0,0,0,0,-0.198,-0.1987,-0.1991,-0.2013,-0.202,-0.2057,-0.204,-0.2041,-0.2051,-0.205,-0.2043,-0.2041,-0.2032,-0.2044,-0.2044,-0.2064,-0.2023,-0.2069,-0.2071,-0.2074,-0.2124,-0.2131,-0.2136,0,0,0,0,0,-0.1978,-0.1986,-0.1991,-0.1997,-0.2026,-0.2058,-0.2061,-0.2063,-0.2053,-0.2062,-0.206,-0.2041,-0.2059,-0.2046,-0.2045,-0.2066,-0.2068,-0.2071,-0.2073,-0.2121,-0.2129,-0.2136,0,0,0,0,0,0,-0.1954,-0.1986,-0.1992,-0.2008,-0.2034,-0.2056,-0.2062,-0.2067,-0.2074,-0.2068,-0.2058,-0.2056,-0.2074,-0.2066,-0.2051,-0.2088,-0.206,-0.2063,-0.2097,-0.2104,-0.2111,-0.2107,-0.2023,0,0,0,0,0,-0.1954,-0.1967,-0.2002,-0.2013,-0.2028,-0.2046,-0.2057,-0.2066,-0.2077,-0.2079,-0.2077,-0.2078,-0.2088,-0.2092,-0.2095,-0.2117,-0.2107,-0.213,-0.2137,-0.2142,-0.214,-0.2149,-0.2156,-0.2084,-0.2084,-0.2084,0,0,-0.1945,-0.1966,-0.1972,-0.201,-0.2026,-0.2061,-0.205,-0.2073,-0.2101,-0.2076,-0.2102,-0.2098,-0.2098,-0.2123,-0.2131,-0.2117,-0.216,-0.2146,-0.215,-0.2145,-0.2153,-0.2159,-0.2165,-0.2086,-0.2086,-0.2086,0,0,-0.1949,-0.1959,-0.1979,-0.2009,-0.2046,-0.2064,-0.2074,-0.2104,-0.2114,-0.2145,-0.2135,-0.2146,-0.2159,-0.2167,-0.2172,-0.2217,-0.2192,-0.2217,-0.2248,-0.2257,-0.2263,-0.2267,-0.2273,-0.2278,-0.2222,-0.2222,-0.2222,0,-0.1937,-0.1973,-0.1989,-0.2027,-0.2053,-0.2069,-0.2108,-0.2128,-0.2158,-0.2172,-0.2158,-0.2187,-0.2183,-0.2219,-0.2232,-0.2231,-0.2227,-0.2218,-0.2265,-0.2269,-0.2273,-0.2277,-0.2282,-0.2225,-0.2225,-0.2224,-0.2224,0,-0.1968,-0.1999,-0.2014,-0.2068,-0.2099,-0.213,-0.2172,-0.2196,-0.2205,-0.2225,-0.2256,-0.2255,-0.2268,-0.2275,-0.2265,-0.2298,-0.2284,-0.227,-0.2243,-0.2283,-0.2285,-0.2289,-0.2229,-0.2228,-0.2227,-0.2227,0,0,-0.1932,-0.2019,-0.2023,-0.2056,-0.2124,-0.2149,-0.2204,-0.2254,-0.2281,-0.2303,-0.2337,-0.2354,-0.2341,-0.2345,-0.2338,-0.2346,-0.2373,-0.2319,-0.2318,-0.2321,-0.2389,-0.2352,-0.2352,-0.2363,-0.2364,-0.2365,-0.2383,0,-0.195,-0.2018,-0.2065,-0.2127,-0.2163,-0.2209,-0.2257,-0.2303,-0.2333,-0.2368,-0.2377,-0.2399,-0.2374,-0.2375,-0.2383,-0.2375,-0.2383,-0.2369,-0.2353,-0.2352,-0.2311,-0.2356,-0.2156,-0.2153,-0.2386,-0.2387,-0.2387,0,-0.1962,-0.2008,-0.2074,-0.2155,-0.2175,-0.2216,-0.2284,-0.2331,-0.2391,-0.2413,-0.244,-0.2445,-0.2467,-0.2433,-0.2442,-0.2431,-0.2412,-0.2402,-0.2403,-0.2349,-0.2322,-0.2149,-0.215,-0.2393,-0.2392,-0.2392,-0.2392,0,-0.1916,-0.2009,-0.2057,-0.2087,-0.2184,-0.2217,-0.2262,-0.2333,-0.2375,-0.2434,-0.2462,-0.249,-0.2497,-0.2489,-0.2467,-0.2455,-0.247,-0.2452,-0.2404,-0.2401,-0.2218,-0.2197,-0.2454,-0.2454,-0.2454,-0.2454,-0.2454,0,-0.191,-0.1946,-0.2034,-0.206,-0.2112,-0.2186,-0.2245,-0.2295,-0.2372,-0.2413,-0.2465,-0.2494,-0.2507,-0.2518,-0.2492,-0.2462,-0.2489,-0.2416,-0.2406,-0.2233,-0.2214,-0.2406,-0.24,-0.2455,-0.2455,-0.2455,-0.2454,0,-0.1854,-0.1917,-0.1971,-0.2065,-0.2093,-0.2123,-0.2229,-0.2261,-0.2345,-0.2402,-0.242,-0.2499,-0.2517,-0.253,-0.2525,-0.2486,-0.2466,-0.2444,-0.2242,-0.2209,-0.2386,-0.2383,-0.2402,-0.2401,-0.24,-0.2399,-0.2399,0,-0.1836,-0.1856,-0.1948,-0.1968,-0.201,-0.2073,-0.2109,-0.2221,-0.2264,-0.2391,-0.2403,-0.247,-0.249,-0.2497,-0.2443,-0.2411,-0.2453,-0.2204,-0.2148,-0.2394,-0.2383,-0.2381,-0.2379,-0.1926,-0.1921,-0.1918,-0.1915,0,-0.1783,-0.1811,-0.1845,-0.1894,-0.1932,-0.1987,-0.2053,-0.209,-0.221,-0.2271,-0.2342,-0.2379,-0.2408,-0.2297,-0.2271,-0.2216,-0.2198,-0.2131,-0.2429,-0.1982,-0.1949,-0.1937,-0.195,-0.1882,-0.1885,-0.1888,-0.189,-0.1891,-0.1718,-0.1723,-0.1761,-0.1799,-0.1838,-0.1867,-0.1877,-0.1958,-0.2018,-0.2077,-0.2193,-0.2187,-0.2184,-0.2064,-0.1977,-0.1903,-0.205,-0.1931,-0.194,-0.1953,-0.1906,-0.1875,-0.1785,-0.1788,-0.179,-0.1792,-0.1794,0,-0.1629,-0.164,-0.1664,-0.1697,-0.1688,-0.1756,-0.1805,-0.1787,-0.1808,-0.1887,-0.1937,-0.1778,-0.1729,-0.1736,-0.158,-0.1561,-0.1517,-0.1486,-0.1411,-0.1445,-0.1475,-0.1401,-0.1147,-0.1146,-0.1144,-0.1142,0,0,-0.1576,-0.1558,-0.1575,-0.1531,-0.1547,-0.1505,-0.1504,-0.1498,-0.1524,-0.15,-0.1502,-0.1651,-0.1691,-0.1419,-0.1354,-0.1227,-0.132,-0.1167,-0.1684,-0.1629,-0.1656,-0.1729,-0.1655,0,0,0,0,0]},{"header":{"parameterUnit":"m.s-1","parameterCategory":2,"la1":30.2991,"la2":30.254,"lo1":-89.0895,"lo2":-89.0444,"dy":0.0017,"dx":0.0017,"nx":28,"ny":28,"refTime":"2023-03-13T21:00:00:Z","depth":"2","parameterNumber":3,"parameterNumberName":"V-component_of_CURRENTS"},"data":[0,0,0,0,0,0,0,0,0,0,0,0,0,0,0,0,0,0,0,0,0,0,0,0,0,0,0,0,0,0,0,0,0,0,0,0,0,0,0,0,0,0,0,0,0,0,0,0,0,0,0,0,0,0,0,0,0,0,-0.014,-0.014,0,-0.0065,-0.0064,-0.0063,-0.0013,-0.0013,-0.0013,-0.0012,0.0082,0.0085,0.0087,0,0,0,0,0,0,0,0,0,0,0,0,0,-0.0207,-0.0206,-0.014,-0.014,-0.0139,-0.0065,-0.0064,-0.0062,-0.0013,-0.0013,-0.0013,-0.0012,0.0082,0.0084,0.0087,0,0,0,0,0,0,0,0,0,0,0,0,0,-0.0158,-0.0205,-0.0141,-0.0106,-0.0103,-0.0065,-0.0064,-0.0062,-0.0013,-0.0013,-0.0012,-0.0012,0.0081,0.0084,0.0088,0.0104,0,0,0.0098,0.01,0,0,0,0,0,0,0,0,-0.0161,-0.0155,-0.0112,-0.0109,-0.0104,-0.0049,-0.0052,-0.0006,-0.0013,-0.0045,-0.0012,-0.0012,0.0039,0.0046,0.0061,0.0108,0.0112,0.0099,0.0101,0.0102,0.0103,0,0,0,0,0,0,0,-0.0164,-0.0158,-0.0109,-0.0111,-0.0107,-0.0083,-0.0076,-0.0043,-0.0004,-0.0043,-0.0039,-0.0033,0.0041,0.0058,0.0064,0.0113,0.0099,0.0102,0.0104,0.0105,0.0185,0.0185,0,0,0,0,0,0,-0.0179,-0.0161,-0.0111,-0.0107,-0.0134,-0.0082,-0.0074,-0.0066,-0.0005,0.0004,-0.0034,-0.0031,0.0052,0.006,0.0067,0.009,0.0102,0.0106,0.0108,0.0185,0.0185,0.0185,0,0,0,0,0,0,-0.018,-0.0175,-0.0114,-0.0134,-0.0124,-0.0082,-0.0073,-0.0065,-0.0049,0.0001,0.0011,-0.0027,0.0052,0.0063,0.0096,0.0094,0.0107,0.011,0.0185,0.0185,0.0185,0.0134,0,0,0,0,0,0,-0.0182,-0.0176,-0.0177,-0.0135,-0.0124,-0.01,-0.0073,-0.0064,-0.0047,-0.0043,0.001,0.002,0.0053,0.009,0.0099,0.0099,0.0113,0.0185,0.0185,0.0185,0.0136,0.0132,0.013,0,0,0,0,0,-0.0185,-0.019,-0.0178,-0.0172,-0.0127,-0.01,-0.0093,-0.006,-0.0047,-0.0044,-0.0005,0.0018,0.0097,0.0093,0.0104,0.0104,0.0185,0.0185,0.0185,0.0137,0.0133,0.013,0,0,0,0,0,0,-0.0219,-0.0185,-0.017,-0.0164,-0.0138,-0.0093,-0.0089,-0.0065,-0.0032,-0.0029,0.002,0.0032,0.0059,0.0089,0.0084,0.0127,0.0144,0.0146,0.0104,0.01,0.0097,0.0083,0.0116,0,0,0,0,0,-0.0229,-0.0224,-0.0186,-0.0182,-0.0173,-0.0132,-0.0118,-0.0096,-0.006,-0.0045,-0.0008,0.0033,0.0068,0.0089,0.0122,0.0147,0.0178,0.0154,0.0151,0.0148,0.0144,0.0189,0.0189,0.0185,0.0185,0.0185,0,0,-0.0242,-0.0222,-0.0219,-0.0189,-0.0167,-0.0163,-0.0123,-0.0107,-0.0097,-0.0041,-0.0018,0.0021,0.0071,0.0099,0.0114,0.0124,0.0165,0.0148,0.0145,0.0142,0.0189,0.0189,0.019,0.0185,0.0185,0.0185,0,0,-0.0272,-0.0248,-0.0258,-0.024,-0.0213,-0.0188,-0.0187,-0.0145,-0.012,-0.0093,-0.005,-0.001,0.0039,0.008,0.0106,0.0106,0.0144,0.0113,0.009,0.0134,0.0134,0.0135,0.0172,0.0177,0.0115,0.0115,0.0115,0,-0.0291,-0.0295,-0.0257,-0.0263,-0.0255,-0.0205,-0.0216,-0.0182,-0.0133,-0.0112,-0.0096,-0.0011,0.0031,0.0076,0.0077,0.0099,0.0126,0.0099,0.0129,0.0131,0.0133,0.017,0.0176,0.0112,0.0113,0.0113,0.0113,0,-0.0328,-0.0332,-0.0337,-0.0328,-0.0313,-0.0312,-0.0267,-0.0246,-0.0212,-0.0171,-0.0121,-0.0056,-0.0006,0.0015,0.0048,0.0083,0.0098,0.0117,0.0136,0.013,0.017,0.0177,0.0109,0.011,0.011,0.0111,0,0,-0.0368,-0.0366,-0.0367,-0.038,-0.0348,-0.0343,-0.0324,-0.0289,-0.0274,-0.0213,-0.0186,-0.0111,-0.0068,-0.0036,0.0016,0.0059,0.0098,0.0088,0.0091,0.0118,0.0189,0.0227,0.0238,0.012,0.0121,0.0122,0.021,0,-0.0411,-0.0446,-0.0424,-0.0454,-0.047,-0.042,-0.0409,-0.0366,-0.0313,-0.0272,-0.0185,-0.0141,-0.0088,-0.0064,-0.0012,0.0073,0.0114,0.0072,0.0196,0.0199,0.0229,0.0247,0.0215,0.0294,0.0217,0.0219,0.022,0,-0.0455,-0.0474,-0.0515,-0.0525,-0.0526,-0.053,-0.0501,-0.0479,-0.0397,-0.0357,-0.0285,-0.0215,-0.013,-0.0094,0.005,0.002,0.0094,0.0159,0.0164,0.0222,0.025,0.0289,0.031,0.0232,0.0231,0.023,0.0229,0,-0.0511,-0.0536,-0.0576,-0.0577,-0.0577,-0.058,-0.0568,-0.0504,-0.0485,-0.0402,-0.038,-0.0264,-0.0207,-0.0095,0.0054,0.0049,0.0206,0.0219,0.0322,0.0325,0.0334,0.0337,0.0304,0.0304,0.0304,0.0304,0.0303,0,-0.0566,-0.0597,-0.0608,-0.0631,-0.0676,-0.0638,-0.0654,-0.0621,-0.0564,-0.0543,-0.0426,-0.0386,-0.0206,-0.0086,0.0037,0.0211,0.02,0.0323,0.0355,0.0316,0.0316,0.029,0.0287,0.0307,0.0306,0.0306,0.0305,0,-0.0623,-0.0629,-0.0682,-0.0699,-0.0709,-0.0735,-0.0732,-0.0733,-0.0666,-0.0635,-0.0615,-0.0469,-0.0301,-0.0115,0.008,0.0193,0.0349,0.0405,0.0348,0.0372,0.0438,0.0431,0.0529,0.0532,0.0533,0.0535,0.0536,0,-0.0657,-0.069,-0.0744,-0.0786,-0.0799,-0.0827,-0.0847,-0.0798,-0.079,-0.0686,-0.0679,-0.0508,-0.0379,-0.0064,0.0167,0.0405,0.0398,0.0497,0.0488,0.0442,0.0463,0.0454,0.0445,0.0478,0.0478,0.0479,0.0479,0,-0.0721,-0.0739,-0.0783,-0.0873,-0.0916,-0.0959,-0.0972,-0.0985,-0.091,-0.0868,-0.0774,-0.0656,-0.0326,-0.0051,0.0273,0.0398,0.0463,0.0518,0.0494,0.0426,0.0401,0.0419,0.0411,0.0485,0.0484,0.0484,0.0483,0.0483,-0.0762,-0.0815,-0.0878,-0.0962,-0.1018,-0.1071,-0.1104,-0.1093,-0.1078,-0.0984,-0.0857,-0.0653,-0.0355,0.0108,0.0338,0.0549,0.0541,0.0584,0.0579,0.0574,0.0553,0.0533,0.0636,0.0637,0.0637,0.0637,0.0638,0,-0.0811,-0.0873,-0.0962,-0.1054,-0.1128,-0.1135,-0.1176,-0.118,-0.1165,-0.1028,-0.0901,-0.0575,-0.023,0.0078,0.0427,0.0634,0.0606,0.0652,0.058,0.0574,0.0569,0.0545,0.0628,0.0629,0.0629,0.063,0,0,-0.0839,-0.0935,-0.0988,-0.1126,-0.1188,-0.1264,-0.1289,-0.1267,-0.1185,-0.1062,-0.089,-0.0628,-0.0232,0.0012,0.0283,0.0467,0.0455,0.0472,0.0456,0.0333,0.0325,0.0509,0.0463,0,0,0,0,0]}],[{"header":{"parameterUnit":"m.s-1","parameterCategory":2,"la1":30.2991,"la2":30.254,"lo1":-89.0895,"lo2":-89.0444,"dy":0.0017,"dx":0.0017,"nx":28,"ny":28,"refTime":"2023-03-13T21:00:00:Z","depth":"4","parameterNumber":2,"parameterNumberName":"U-component_of_CURRENTS"},"data":[0,0,0,0,0,0,0,0,0,0,0,0,0,0,0,0,0,0,0,0,0,0,0,0,0,0,0,0,0,0,0,0,0,0,0,0,0,0,0,0,0,0,0,0,0,0,0,0,0,0,0,0,0,0,0,0,0,0,-0.1462,-0.1463,0,-0.1524,-0.1524,-0.1525,-0.1561,-0.1562,-0.1562,-0.1562,-0.1612,-0.1613,-0.1614,0,0,0,0,0,0,0,0,0,0,0,0,0,-0.1375,-0.1376,-0.1462,-0.1463,-0.1464,-0.1523,-0.1524,-0.1525,-0.1561,-0.1562,-0.1562,-0.1563,-0.1612,-0.1613,-0.1614,0,0,0,0,0,0,0,0,0,0,0,0,0,-0.142,-0.1376,-0.1462,-0.1491,-0.1494,-0.1523,-0.1524,-0.1525,-0.1561,-0.1562,-0.1562,-0.1563,-0.1611,-0.1613,-0.1614,-0.1614,0,0,-0.1619,-0.162,0,0,0,0,0,0,0,0,-0.1418,-0.1423,-0.1486,-0.1489,-0.1492,-0.1537,-0.1512,-0.1555,-0.1561,-0.1534,-0.1562,-0.1563,-0.1586,-0.159,-0.1598,-0.1617,-0.1619,-0.1619,-0.162,-0.1621,-0.1621,0,0,0,0,0,0,0,-0.1415,-0.1421,-0.1485,-0.1486,-0.1491,-0.15,-0.1507,-0.152,-0.1555,-0.1537,-0.154,-0.1549,-0.1588,-0.1597,-0.16,-0.162,-0.1619,-0.162,-0.1621,-0.1622,-0.1714,-0.1716,0,0,0,0,0,0,-0.141,-0.1418,-0.1483,-0.1487,-0.1457,-0.1501,-0.1509,-0.1521,-0.1556,-0.1562,-0.1548,-0.155,-0.1594,-0.1598,-0.1602,-0.1673,-0.1621,-0.1622,-0.1623,-0.1713,-0.1715,-0.1716,0,0,0,0,0,0,-0.1408,-0.1415,-0.1481,-0.1455,-0.1464,-0.1502,-0.1515,-0.1522,-0.1554,-0.1565,-0.1571,-0.1576,-0.1595,-0.16,-0.164,-0.1672,-0.1623,-0.1624,-0.1711,-0.1713,-0.1716,-0.1771,0,0,0,0,0,0,-0.1405,-0.1414,-0.1431,-0.1455,-0.1465,-0.1513,-0.1515,-0.1523,-0.1558,-0.1562,-0.1591,-0.1594,-0.1595,-0.1638,-0.1642,-0.1674,-0.1625,-0.1709,-0.1712,-0.1715,-0.1767,-0.1775,-0.1781,0,0,0,0,0,-0.1402,-0.1418,-0.1432,-0.144,-0.1484,-0.1515,-0.1521,-0.1548,-0.1559,-0.1577,-0.1602,-0.1595,-0.1659,-0.164,-0.1644,-0.1678,-0.1708,-0.1711,-0.1715,-0.1764,-0.1773,-0.1781,0,0,0,0,0,0,-0.1388,-0.1424,-0.1439,-0.1466,-0.1497,-0.1522,-0.1542,-0.1561,-0.1595,-0.1605,-0.1613,-0.1619,-0.1666,-0.1665,-0.1645,-0.1713,-0.1682,-0.1687,-0.1719,-0.1727,-0.1734,-0.1732,-0.1627,0,0,0,0,0,-0.1393,-0.1416,-0.145,-0.1473,-0.149,-0.1521,-0.1541,-0.1562,-0.159,-0.1607,-0.1629,-0.1654,-0.1679,-0.1698,-0.1716,-0.1753,-0.1745,-0.1778,-0.1785,-0.1791,-0.1793,-0.181,-0.1818,-0.1728,-0.1728,-0.1728,0,0,-0.1394,-0.1417,-0.1431,-0.1473,-0.1497,-0.1532,-0.1534,-0.1572,-0.161,-0.1606,-0.1665,-0.1679,-0.1694,-0.1739,-0.176,-0.1745,-0.1814,-0.1796,-0.1801,-0.1799,-0.1814,-0.1823,-0.183,-0.173,-0.173,-0.1729,0,0,-0.1402,-0.1429,-0.1452,-0.1482,-0.1528,-0.155,-0.1567,-0.1609,-0.164,-0.1692,-0.1701,-0.1737,-0.1776,-0.1796,-0.1809,-0.1866,-0.1849,-0.1875,-0.1914,-0.1931,-0.1938,-0.1944,-0.1946,-0.1952,-0.1882,-0.1882,-0.1882,0,-0.1404,-0.1439,-0.1464,-0.1496,-0.1529,-0.1562,-0.16,-0.1635,-0.1689,-0.1719,-0.172,-0.1792,-0.1804,-0.1858,-0.188,-0.1883,-0.1882,-0.1879,-0.1939,-0.1945,-0.195,-0.1951,-0.1957,-0.1885,-0.1885,-0.1884,-0.1884,0,-0.1426,-0.1466,-0.1482,-0.1537,-0.1575,-0.1612,-0.1664,-0.1708,-0.1747,-0.178,-0.1847,-0.1866,-0.1906,-0.1921,-0.1919,-0.1971,-0.1955,-0.1943,-0.1914,-0.1963,-0.1961,-0.1966,-0.189,-0.1888,-0.1888,-0.1887,0,0,-0.1396,-0.1482,-0.149,-0.1528,-0.1603,-0.1632,-0.1704,-0.1771,-0.182,-0.1871,-0.1932,-0.1977,-0.1985,-0.2,-0.2006,-0.2025,-0.2063,-0.2005,-0.2004,-0.2001,-0.2093,-0.1962,-0.1954,-0.2062,-0.2063,-0.2064,-0.2076,0,-0.1408,-0.1472,-0.1521,-0.1592,-0.1628,-0.1693,-0.1755,-0.1823,-0.188,-0.1944,-0.198,-0.2032,-0.2018,-0.2041,-0.206,-0.2064,-0.2079,-0.206,-0.2051,-0.2051,-0.1923,-0.1956,-0.2068,-0.208,-0.2081,-0.2082,-0.2082,0,-0.1408,-0.1455,-0.1526,-0.1623,-0.1647,-0.1701,-0.1804,-0.1865,-0.196,-0.2003,-0.206,-0.2087,-0.2136,-0.2109,-0.2139,-0.2129,-0.2116,-0.2111,-0.2111,-0.1969,-0.1928,-0.2022,-0.2091,-0.209,-0.209,-0.2089,-0.2089,0,-0.1356,-0.1456,-0.1515,-0.1548,-0.1662,-0.1716,-0.178,-0.1882,-0.1942,-0.204,-0.2085,-0.2143,-0.2173,-0.2179,-0.2168,-0.2161,-0.2185,-0.2171,-0.2041,-0.2032,-0.2122,-0.2115,-0.2186,-0.2186,-0.2186,-0.2186,-0.2186,0,-0.1333,-0.1382,-0.15,-0.1529,-0.1608,-0.1695,-0.1788,-0.1859,-0.1965,-0.2023,-0.2105,-0.2142,-0.2191,-0.221,-0.2192,-0.2123,-0.2202,-0.2046,-0.2026,-0.2146,-0.2141,-0.2125,-0.2118,-0.2186,-0.2186,-0.2186,-0.2186,0,-0.1263,-0.1342,-0.1414,-0.154,-0.1586,-0.164,-0.1786,-0.1838,-0.1949,-0.2026,-0.2057,-0.2154,-0.2169,-0.2198,-0.2206,-0.2133,-0.2096,-0.2051,-0.2177,-0.2164,-0.1928,-0.1924,-0.1908,-0.1903,-0.19,-0.1896,-0.1894,0,-0.1233,-0.1262,-0.1402,-0.1444,-0.1508,-0.1609,-0.1669,-0.1808,-0.1861,-0.2007,-0.2021,-0.2096,-0.2135,-0.2044,-0.2085,-0.2043,-0.2015,-0.198,-0.1951,-0.1918,-0.19,-0.1902,-0.1903,-0.1888,-0.1887,-0.1886,-0.1885,0,-0.1167,-0.1226,-0.1281,-0.1371,-0.1445,-0.1526,-0.1624,-0.1654,-0.1794,-0.1915,-0.1933,-0.1942,-0.1958,-0.1955,-0.1933,-0.1903,-0.1996,-0.1939,-0.1947,-0.1919,-0.1893,-0.188,-0.1885,-0.1871,-0.1873,-0.1874,-0.1875,0,-0.1113,-0.1134,-0.121,-0.1277,-0.1361,-0.1404,-0.1482,-0.154,-0.1614,-0.1773,-0.1772,-0.185,-0.1939,-0.1882,-0.1864,-0.1823,-0.1793,-0.1723,-0.1741,-0.1757,-0.1699,-0.1642,-0.1524,0,0,0,0,0,-0.105,-0.1058,-0.111,-0.1178,-0.1253,-0.1306,-0.1427,-0.1505,-0.1644,-0.1609,-0.1689,-0.1697,-0.1683,-0.1729,-0.1651,-0.1788,-0.1794,-0.169,-0.1723,-0.1797,-0.1812,-0.1756,0,0,0,0,0,0,-0.1007,-0.1045,-0.1068,-0.107,-0.1092,-0.1171,-0.1238,-0.1339,-0.1339,-0.1479,-0.1482,-0.1583,-0.1596,-0.1696,-0.1612,-0.1622,-0.1605,-0.1745,-0.174,-0.1788,-0.1802,-0.1815,-0.1762,0,0,0,0,0]},{"header":{"parameterUnit":"m.s-1","parameterCategory":2,"la1":30.2991,"la2":30.254,"lo1":-89.0895,"lo2":-89.0444,"dy":0.0017,"dx":0.0017,"nx":28,"ny":28,"refTime":"2023-03-13T21:00:00:Z","depth":"4","parameterNumber":3,"parameterNumberName":"V-component_of_CURRENTS"},"data":[0,0,0,0,0,0,0,0,0,0,0,0,0,0,0,0,0,0,0,0,0,0,0,0,0,0,0,0,0,0,0,0,0,0,0,0,0,0,0,0,0,0,0,0,0,0,0,0,0,0,0,0,0,0,0,0,0,0,-0.0076,-0.0075,0,-0.0028,-0.0028,-0.0027,0.0012,0.0013,0.0013,0.0013,0.0088,0.009,0.0091,0,0,0,0,0,0,0,0,0,0,0,0,0,-0.0109,-0.0109,-0.0076,-0.0075,-0.0075,-0.0028,-0.0028,-0.0027,0.0012,0.0013,0.0013,0.0013,0.0087,0.0089,0.0091,0,0,0,0,0,0,0,0,0,0,0,0,0,-0.008,-0.0108,-0.0076,-0.0051,-0.0048,-0.0029,-0.0028,-0.0027,0.0012,0.0013,0.0013,0.0014,0.0087,0.0089,0.0092,0.0098,0,0,0.0099,0.0101,0,0,0,0,0,0,0,0,-0.0082,-0.0079,-0.0055,-0.0052,-0.0049,-0.0015,-0.0012,0.0016,0.0012,-0.0009,0.0013,0.0014,0.0055,0.006,0.007,0.0102,0.0105,0.01,0.0101,0.0102,0.0103,0,0,0,0,0,0,0,-0.0084,-0.008,-0.0056,-0.0054,-0.0051,-0.0034,-0.0029,-0.0006,0.0021,-0.0007,-0.0005,-0.0002,0.0057,0.0067,0.0072,0.0106,0.01,0.0102,0.0103,0.0104,0.0158,0.0158,0,0,0,0,0,0,-0.0094,-0.0083,-0.0057,-0.0054,-0.0066,-0.0034,-0.0029,-0.0025,0.0021,0.0027,-0.0002,-0.0,0.0062,0.0069,0.0074,0.0088,0.0102,0.0105,0.0106,0.0158,0.0158,0.0158,0,0,0,0,0,0,-0.0095,-0.0092,-0.0059,-0.0068,-0.0063,-0.0034,-0.003,-0.0024,-0.0014,0.0024,0.0032,0.0002,0.0063,0.0071,0.0094,0.0091,0.0106,0.0108,0.0158,0.0158,0.0158,0.0113,0,0,0,0,0,0,-0.0096,-0.0093,-0.0096,-0.0069,-0.0063,-0.0055,-0.0031,-0.0024,-0.0014,-0.0011,0.003,0.0037,0.0064,0.009,0.0096,0.0095,0.011,0.0158,0.0158,0.0158,0.0114,0.0111,0.0108,0,0,0,0,0,-0.0098,-0.0106,-0.0097,-0.0094,-0.0068,-0.0055,-0.0051,-0.0027,-0.0014,-0.0015,0.0015,0.0036,0.0093,0.0091,0.0099,0.0098,0.0159,0.0158,0.0158,0.0116,0.0112,0.0108,0,0,0,0,0,0,-0.0122,-0.0102,-0.0091,-0.0093,-0.0079,-0.0049,-0.005,-0.0032,-0.0009,-0.0005,0.0035,0.0044,0.0062,0.0086,0.0083,0.0113,0.0129,0.013,0.0094,0.0091,0.0088,0.0079,0.0112,0,0,0,0,0,-0.013,-0.0131,-0.0108,-0.0111,-0.0106,-0.0079,-0.0071,-0.0055,-0.0031,-0.002,0.0009,0.004,0.0067,0.0083,0.0107,0.0123,0.0154,0.0128,0.0125,0.0122,0.012,0.0168,0.0169,0.0157,0.0157,0.0157,0,0,-0.0141,-0.0131,-0.0131,-0.0116,-0.0103,-0.0106,-0.0073,-0.0067,-0.0064,-0.0016,-0.0004,0.0028,0.0068,0.0086,0.0097,0.0107,0.0141,0.0122,0.0119,0.0119,0.0167,0.0169,0.017,0.0157,0.0157,0.0157,0,0,-0.017,-0.0155,-0.0168,-0.0159,-0.0145,-0.0129,-0.013,-0.0104,-0.0086,-0.0071,-0.0034,-0.0002,0.0032,0.0066,0.0087,0.0082,0.012,0.0087,0.0068,0.0113,0.0115,0.0117,0.0152,0.0157,0.0089,0.0088,0.0088,0,-0.0186,-0.0197,-0.0171,-0.0181,-0.018,-0.0144,-0.0159,-0.0137,-0.0105,-0.0088,-0.0076,-0.0009,0.0024,0.0061,0.0059,0.0075,0.0103,0.0078,0.0109,0.0112,0.0114,0.015,0.0156,0.0086,0.0087,0.0087,0.0087,0,-0.0223,-0.0233,-0.0241,-0.0243,-0.0237,-0.0243,-0.0213,-0.0201,-0.0175,-0.0145,-0.0104,-0.0053,-0.0011,0.0005,0.0031,0.0065,0.008,0.0097,0.0117,0.0113,0.0151,0.0158,0.0083,0.0084,0.0085,0.0085,0,0,-0.0254,-0.0267,-0.0269,-0.0284,-0.0269,-0.0271,-0.0263,-0.0241,-0.023,-0.0185,-0.0162,-0.0105,-0.0065,-0.0038,0.0006,0.0048,0.0089,0.0075,0.0079,0.0107,0.0183,0.017,0.0178,0.0113,0.0114,0.0115,0.0201,0,-0.0293,-0.0333,-0.0323,-0.0358,-0.0376,-0.0342,-0.034,-0.031,-0.0269,-0.0236,-0.0162,-0.0126,-0.0083,-0.0061,-0.0011,0.0066,0.0107,0.0064,0.0187,0.019,0.0177,0.0185,0.0118,0.0206,0.0208,0.021,0.021,0,-0.0332,-0.0355,-0.04,-0.0418,-0.0422,-0.0435,-0.0417,-0.0405,-0.0339,-0.0306,-0.0244,-0.0183,-0.0107,-0.0077,0.0057,0.0027,0.0097,0.0156,0.0161,0.017,0.0191,0.0215,0.0224,0.0223,0.0222,0.0221,0.022,0,-0.037,-0.0406,-0.0447,-0.0453,-0.0466,-0.0476,-0.0474,-0.0426,-0.0413,-0.0343,-0.0322,-0.0219,-0.0167,-0.0063,0.0067,0.0063,0.0212,0.0224,0.0277,0.0277,0.0283,0.0281,0.0309,0.0309,0.0309,0.0308,0.0308,0,-0.041,-0.0443,-0.0472,-0.0495,-0.0542,-0.0521,-0.0542,-0.0519,-0.0475,-0.0457,-0.0359,-0.0319,-0.016,-0.0052,0.0058,0.0193,0.021,0.0275,0.0301,0.0261,0.0255,0.0288,0.0285,0.0312,0.0311,0.031,0.031,0,-0.0443,-0.0462,-0.0517,-0.0549,-0.0565,-0.0593,-0.0608,-0.061,-0.056,-0.0531,-0.0513,-0.0386,-0.0241,-0.0081,0.0098,0.0176,0.0307,0.0347,0.029,0.031,0.0342,0.0335,0.0412,0.0412,0.0413,0.0413,0.0413,0,-0.0463,-0.0495,-0.0564,-0.0607,-0.0629,-0.0666,-0.069,-0.0662,-0.0654,-0.057,-0.0557,-0.0415,-0.0315,-0.0069,0.0092,0.0302,0.0327,0.0386,0.0366,0.0337,0.0354,0.0347,0.034,0.0413,0.0413,0.0413,0.0414,0,-0.05,-0.0528,-0.0572,-0.0663,-0.0713,-0.0759,-0.0782,-0.0784,-0.073,-0.0692,-0.0584,-0.0441,-0.0276,-0.0078,0.0091,0.0238,0.0344,0.0389,0.0389,0.0371,0.0339,0.0354,0.0347,0.0414,0.0414,0.0414,0.0414,0,-0.0523,-0.0566,-0.0632,-0.0708,-0.0779,-0.0823,-0.0833,-0.0809,-0.0789,-0.0683,-0.0651,-0.0457,-0.0337,-0.0112,0.0041,0.0191,0.0221,0.0252,0.026,0.0261,0.019,0.0126,0.0159,0,0,0,0,0,-0.0539,-0.0591,-0.0672,-0.075,-0.0819,-0.0857,-0.088,-0.0869,-0.0819,-0.0753,-0.0695,-0.0537,-0.0285,-0.0173,-0.0026,0.0033,0.0235,0.0206,0.0271,0.0419,0.0418,0.036,0,0,0,0,0,0,-0.0552,-0.0626,-0.0671,-0.0764,-0.0824,-0.0887,-0.0905,-0.0874,-0.0824,-0.0755,-0.0619,-0.0523,-0.0278,-0.0369,-0.0029,0.0018,0.0073,0.0335,0.0337,0.042,0.0419,0.0418,0.0358,0,0,0,0,0]}]]